EW8956 Weather Reports


Display with metric or nautical units.
time (UTC)temp
F
wind
direction
speed
MPH
gust
MPH
rain 1hr
in
rain 24hr
in
rain mn
in
humidity
%
barometer
mb
20260904053050 81 0 0.0 4.0 0.00 0.00 0.00 75 1018.2
20260904051556 82 0 0.0 2.0 0.00 0.00 0.00 73 1018.3
20260904050056 82 227 0.0 3.0 0.00 0.00 0.00 73 1018.4
20260904044553 82 0 0.0 4.0 0.00 0.00 0.00 73 1018.5
20260904043054 82 0 0.0 1.0 0.00 0.00 0.00 73 1018.4
20260904041548 81 0 0.0 0.0 0.00 0.00 0.00 73 1018.2
20260904040057 82 0 0.0 0.0 0.00 0.00 0.00 74 1018.0
20260904034551 83 0 0.0 1.0 0.00 0.00 0.00 70 1018.0
20260904033058 83 0 0.0 3.0 0.00 0.00 0.00 70 1018.1
20260904031550 83 0 0.0 0.0 0.00 0.00 0.00 71 1018.1
20260904030055 84 0 0.0 1.0 0.00 0.00 0.00 69 1018.1
20260904024558 84 0 0.0 0.0 0.00 0.00 0.00 68 1018.1
20260904023052 84 0 0.0 0.0 0.00 0.00 0.00 68 1018.2
20260904021548 84 0 0.0 0.0 0.00 0.00 0.00 68 1018.2
20260904020045 84 0 0.0 0.0 0.00 0.00 0.00 68 1018.3
20260904014616 85 0 0.0 1.0 0.00 0.00 0.00 66 1018.1
20260904013109 86 0 0.0 0.0 0.00 0.00 0.00 65 1018.1
20260904011553 86 0 0.0 0.0 0.00 0.00 0.00 63 1017.7
20260904010052 87 0 0.0 1.0 0.00 0.00 0.00 61 1017.6
20260904004554 88 0 0.0 0.0 0.00 0.00 0.00 60 1017.4
20260904003101 88 0 0.0 0.0 0.00 0.00 0.00 59 1017.2
20260904001550 89 0 0.0 0.0 0.00 0.00 0.00 57 1017.1
20260904000050 90 0 0.0 1.0 0.00 0.00 0.00 56 1016.8
20260903234556 90 0 0.0 0.0 0.00 0.00 0.00 55 1016.7
20260903233059 91 0 0.0 2.0 0.00 0.00 0.00 54 1016.5
20260903231553 91 0 0.0 4.0 0.00 0.00 0.00 53 1016.5
20260903230100 92 64 0.0 4.0 0.00 0.00 0.00 52 1016.5
20260903224550 92 0 0.0 4.0 0.00 0.00 0.00 51 1016.5
20260903223103 93 125 0.0 3.0 0.00 0.00 0.00 51 1016.4
20260903221555 93 0 0.0 6.0 0.00 0.00 0.00 47 1016.5
20260903220055 94 0 0.0 7.0 0.00 0.00 0.00 48 1016.7
20260903214552 94 0 1.0 10.0 0.00 0.00 0.00 47 1016.8
20260903213055 95 0 1.0 9.0 0.00 0.00 0.00 47 1016.7
20260903211606 95 0 0.0 6.0 0.00 0.00 0.00 47 1016.7
20260903210053 95 0 0.0 4.0 0.00 0.00 0.00 48 1016.7
20260903204548 95 0 1.0 6.0 0.00 0.00 0.00 47 1016.9
20260903203056 96 93 0.0 8.0 0.00 0.00 0.00 47 1016.9
20260903201557 95 0 1.0 4.0 0.00 0.00 0.00 48 1017.1
20260903200051 95 0 0.0 4.0 0.00 0.00 0.00 48 1017.2
20260903194557 95 0 1.0 7.0 0.00 0.00 0.00 49 1017.4
20260903193107 94 0 1.0 7.0 0.00 0.00 0.00 48 1017.5
20260903191552 95 111 1.0 9.0 0.00 0.00 0.00 49 1017.7
20260903190054 94 0 2.0 6.0 0.00 0.00 0.00 50 1017.8
20260903184555 94 0 0.0 3.0 0.00 0.00 0.00 48 1017.9
20260903183056 96 0 1.0 4.0 0.00 0.00 0.00 44 1018.1
20260903181554 96 119 0.0 4.0 0.00 0.00 0.00 45 1018.3
20260903180050 95 118 1.0 6.0 0.00 0.00 0.00 44 1018.5
20260903174546 95 0 1.0 4.0 0.00 0.00 0.00 45 1018.6
20260903173104 94 106 2.0 6.0 0.00 0.00 0.00 47 1018.8
20260903171600 95 0 0.0 3.0 0.00 0.00 0.00 49 1018.8
20260903170106 94 0 0.0 4.0 0.00 0.00 0.00 47 1019.0
20260903164607 94 0 0.0 5.0 0.00 0.00 0.00 48 1019.2
20260903163055 94 0 0.0 4.0 0.00 0.00 0.00 53 1019.3
20260903161552 93 0 0.0 3.0 0.00 0.00 0.00 52 1019.4
20260903160106 93 0 0.0 1.0 0.00 0.00 0.00 53 1019.5
20260903154553 92 0 0.0 2.0 0.00 0.00 0.00 53 1019.5
20260903153106 93 0 0.0 1.0 0.00 0.00 0.00 56 1019.7
20260903151549 91 0 0.0 1.0 0.00 0.00 0.00 54 1019.8
20260903150057 90 0 0.0 2.0 0.00 0.00 0.00 56 1019.8
20260903144558 90 0 0.0 0.0 0.00 0.00 0.00 59 1019.7
20260903143057 89 0 0.0 0.0 0.00 0.00 0.00 60 1019.6
20260903141552 88 0 0.0 0.0 0.00 0.00 0.00 64 1019.7
20260903140057 86 0 0.0 0.0 0.00 0.00 0.00 68 1019.7
20260903134601 85 0 0.0 0.0 0.00 0.00 0.00 69 1019.6
20260903133105 84 0 0.0 0.0 0.00 0.00 0.00 74 1019.6
20260903131552 81 0 0.0 0.0 0.00 0.00 0.00 78 1019.6
20260903130059 81 0 0.0 0.0 0.00 0.00 0.00 78 1019.6
20260903124606 79 0 0.0 0.0 0.00 0.00 0.00 81 1019.6
20260903123052 78 0 0.0 0.0 0.00 0.00 0.00 82 1019.6
20260903121549 77 0 0.0 0.0 0.00 0.00 0.00 84 1019.6
20260903120058 75 0 0.0 0.0 0.00 0.00 0.00 87 1019.6
20260903114554 74 0 0.0 0.0 0.00 0.00 0.00 89 1019.4
20260903113051 73 0 0.0 0.0 0.00 0.00 0.00 90 1019.2
20260903111551 73 0 0.0 0.0 0.00 0.00 0.00 90 1019.0
20260903110058 73 0 0.0 0.0 0.00 0.00 0.00 90 1019.0
20260903104556 73 0 0.0 0.0 0.00 0.00 0.00 91 1018.9
20260903103053 73 0 0.0 0.0 0.00 0.00 0.00 91 1018.9
20260903101553 73 0 0.0 0.0 0.00 0.00 0.00 91 1018.9
20260903100100 73 0 0.0 0.0 0.00 0.00 0.00 91 1018.8
20260903094609 73 0 0.0 0.0 0.00 0.00 0.00 91 1018.8
20260903093101 74 0 0.0 0.0 0.00 0.00 0.00 91 1018.7
20260903091555 74 0 0.0 0.0 0.00 0.00 0.00 90 1018.6
20260903084553 74 0 0.0 0.0 0.00 0.00 0.00 89 1018.5
20260903083058 74 0 0.0 0.0 0.00 0.00 0.00 89 1018.5
20260903081608 74 0 0.0 0.0 0.00 0.00 0.00 89 1018.4
20260903080054 74 0 0.0 0.0 0.00 0.00 0.00 89 1018.3
20260903074605 74 0 0.0 0.0 0.00 0.00 0.00 87 1018.3
20260903073135 74 0 0.0 0.0 0.00 0.00 0.00 88 1018.1
20260903071618 74 0 0.0 0.0 0.00 0.00 0.00 88 1018.1
20260903070056 75 0 0.0 0.0 0.00 0.00 0.00 87 1018.2
20260903064552 75 0 0.0 0.0 0.00 0.00 0.00 87 1018.3
20260903063102 76 0 0.0 0.0 0.00 0.00 0.00 87 1018.2
20260903061558 76 0 0.0 0.0 0.00 0.00 0.00 87 1018.3
20260903060131 76 0 0.0 0.0 0.00 0.00 0.00 85 1018.3
20260903054553 76 0 0.0 0.0 0.00 0.00 0.00 84 1018.4